Dades meteomassalio
Diari Summary for Juny 23, 2017 Units:  Metric    English   Both
« Previous Day
Next Day »
Diari Semanal Mensual Anual Personalitzat
  Maxima: Minima: Mijana:
Temperatura: 37.9 °C 20.1 °C 29.1 °C
Rosada: 19.8 °C 12.5 °C 16.3 °C
Humitat: 64 % 27 % 48 %
Velocitat del vent: 19.3 km/h 0.0 km/h 4.6 km/h
Racha vent: 19.3 km/h - -
Vent:- - SSE
Pressio: 1019.2 hPa 1014.4 hPa -
Pluja: 0.0 mm    
Historical Graphs
 
 
Tabular Data for Juny 23, 2017
Time Temperature Dew Point Pressure Wind Wind Speed Wind Gust Humidity Rainfall Rate (Hourly) solar Conditions
00:00 26.7 °C 14.8 °C 1015.8 hPa East 3.7 km/h 3.7 km/h 48 % 0.0 mm 0.0 W/m2 CLR
00:05 26.7 °C 14.7 °C 1015.8 hPa Calm     48 % 0.0 mm 0.0 W/m2 CLR
00:10 26.6 °C 14.7 °C 1016.1 hPa Calm     48 % 0.0 mm 0.0 W/m2 CLR
00:15 26.6 °C 14.9 °C 1016.1 hPa Calm     49 % 0.0 mm 0.0 W/m2 CLR
00:20 26.5 °C 14.9 °C 1016.1 hPa Calm     49 % 0.0 mm 0.0 W/m2 CLR
00:25 26.4 °C 15.1 °C 1016.5 hPa Calm     50 % 0.0 mm 0.0 W/m2 CLR
00:30 26.2 °C 15.0 °C 1016.5 hPa Calm     50 % 0.0 mm 0.0 W/m2 CLR
00:35 26.1 °C 14.8 °C 1016.5 hPa Calm     50 % 0.0 mm 0.0 W/m2 CLR
00:40 26.0 °C 14.8 °C 1016.5 hPa Calm     50 % 0.0 mm 0.0 W/m2 CLR
00:45 25.9 °C 14.7 °C 1016.5 hPa Calm     50 % 0.0 mm 0.0 W/m2 CLR
00:50 25.8 °C 14.9 °C 1016.5 hPa Calm     51 % 0.0 mm 0.0 W/m2 CLR
00:55 25.6 °C 15.0 °C 1016.5 hPa Calm     52 % 0.0 mm 0.0 W/m2 CLR
01:00 25.4 °C 14.8 °C 1016.5 hPa Calm     52 % 0.0 mm 0.0 W/m2 CLR
01:05 25.3 °C 14.7 °C 1016.5 hPa Calm     52 % 0.0 mm 0.0 W/m2 CLR
01:10 25.3 °C 14.7 °C 1016.5 hPa Calm     52 % 0.0 mm 0.0 W/m2 CLR
01:15 25.3 °C 14.7 °C 1016.5 hPa Calm     52 % 0.0 mm 0.0 W/m2 CLR
01:21 25.3 °C 14.4 °C 1016.5 hPa ENE 3.7 km/h   51 % 0.0 mm 0.0 W/m2 CLR
01:26 25.4 °C 14.6 °C 1016.1 hPa ENE 3.7 km/h   51 % 0.0 mm 0.0 W/m2 CLR
01:31 25.5 °C 14.3 °C 1016.5 hPa Calm     50 % 0.0 mm 0.0 W/m2 CLR
01:36 25.5 °C 14.3 °C 1016.5 hPa Calm     50 % 0.0 mm 0.0 W/m2 CLR
01:41 25.6 °C 14.4 °C 1016.5 hPa Calm     50 % 0.0 mm 0.0 W/m2 CLR
01:46 25.5 °C 14.6 °C 1016.5 hPa Calm     51 % 0.0 mm 0.0 W/m2 CLR
01:51 25.3 °C 14.4 °C 1016.5 hPa Calm     51 % 0.0 mm 0.0 W/m2 CLR
01:56 25.1 °C 14.5 °C 1016.5 hPa Calm     52 % 0.0 mm 0.0 W/m2 CLR
02:01 24.8 °C 14.6 °C 1016.5 hPa Calm     53 % 0.0 mm 0.0 W/m2 CLR
02:06 24.7 °C 14.4 °C 1016.1 hPa Calm     53 % 0.0 mm 0.0 W/m2 CLR
02:11 24.6 °C 14.4 °C 1016.5 hPa Calm     53 % 0.0 mm 0.0 W/m2 CLR
02:16 24.4 °C 14.5 °C 1016.5 hPa Calm     54 % 0.0 mm 0.0 W/m2 CLR
02:21 24.2 °C 14.3 °C 1016.1 hPa Calm     54 % 0.0 mm 0.0 W/m2 CLR
02:26 24.1 °C 14.8 °C 1016.1 hPa Calm     56 % 0.0 mm 0.0 W/m2 CLR
02:31 23.9 °C 14.6 °C 1016.1 hPa Calm     56 % 0.0 mm 0.0 W/m2 CLR
02:36 23.7 °C 14.7 °C 1016.5 hPa Calm     57 % 0.0 mm 0.0 W/m2 CLR
02:41 23.7 °C 14.4 °C 1016.5 hPa Calm     56 % 0.0 mm 0.0 W/m2 CLR
02:46 23.7 °C 14.7 °C 1016.5 hPa Calm     57 % 0.0 mm 0.0 W/m2 CLR
02:51 23.6 °C 14.6 °C 1016.5 hPa Calm     57 % 0.0 mm 0.0 W/m2 CLR
02:56 23.4 °C 14.4 °C 1016.5 hPa Calm     57 % 0.0 mm 0.0 W/m2 CLR
03:01 23.3 °C 14.3 °C 1016.1 hPa Calm     57 % 0.0 mm 0.0 W/m2 CLR
03:06 23.3 °C 14.6 °C 1016.1 hPa Calm     58 % 0.0 mm 0.0 W/m2 CLR
03:11 23.2 °C 14.2 °C 1016.1 hPa Calm     57 % 0.0 mm 0.0 W/m2 CLR
03:16 23.2 °C 13.9 °C 1016.1 hPa Calm     56 % 0.0 mm 0.0 W/m2 CLR
03:21 23.2 °C 13.9 °C 1016.1 hPa Calm     56 % 0.0 mm 0.0 W/m2 CLR
03:26 23.1 °C 14.1 °C 1016.1 hPa Calm     57 % 0.0 mm 0.0 W/m2 CLR
03:31 23.0 °C 14.0 °C 1016.1 hPa Calm     57 % 0.0 mm 0.0 W/m2 CLR
03:36 22.9 °C 13.9 °C 1016.1 hPa Calm     57 % 0.0 mm 0.0 W/m2 CLR
03:41 22.7 °C 13.7 °C 1016.1 hPa Calm     57 % 0.0 mm 0.0 W/m2 CLR
03:46 22.6 °C 13.9 °C 1016.1 hPa Calm     58 % 0.0 mm 0.0 W/m2 CLR
03:51 22.4 °C 13.8 °C 1016.1 hPa Calm     58 % 0.0 mm 0.0 W/m2 CLR
03:56 22.3 °C 13.3 °C 1016.1 hPa Calm     57 % 0.0 mm 0.0 W/m2 CLR
04:01 22.2 °C 13.8 °C 1016.1 hPa Calm     59 % 0.0 mm 0.0 W/m2 CLR
04:06 22.1 °C 13.7 °C 1016.1 hPa Calm     59 % 0.0 mm 0.0 W/m2 CLR
04:11 22.0 °C 13.6 °C 1016.1 hPa Calm     59 % 0.0 mm 0.0 W/m2 CLR
04:16 21.9 °C 13.8 °C 1016.1 hPa Calm     60 % 0.0 mm 0.0 W/m2 CLR
04:21 21.8 °C 13.7 °C 1016.1 hPa Calm     60 % 0.0 mm 0.0 W/m2 CLR
04:26 21.7 °C 13.6 °C 1016.1 hPa Calm     60 % 0.0 mm 0.0 W/m2 CLR
04:31 21.6 °C 13.5 °C 1016.1 hPa Calm     60 % 0.0 mm 0.0 W/m2 CLR
04:36 21.4 °C 13.6 °C 1016.1 hPa Calm     61 % 0.0 mm 0.0 W/m2 CLR
04:41 21.2 °C 13.4 °C 1016.1 hPa Calm     61 % 0.0 mm 0.0 W/m2 CLR
04:46 21.1 °C 13.6 °C 1016.1 hPa Calm     62 % 0.0 mm 0.0 W/m2 CLR
04:51 21.1 °C 13.5 °C 1016.1 hPa Calm     62 % 0.0 mm 0.0 W/m2 CLR
04:56 21.0 °C 13.4 °C 1016.1 hPa Calm     62 % 0.0 mm 0.0 W/m2 CLR
05:01 20.8 °C 13.3 °C 1016.1 hPa Calm     62 % 0.0 mm 0.0 W/m2 CLR
05:06 20.7 °C 13.1 °C 1016.1 hPa Calm     62 % 0.0 mm 0.0 W/m2 CLR
05:11 20.6 °C 13.3 °C 1016.1 hPa Calm     63 % 0.0 mm 0.0 W/m2 CLR
05:16 20.6 °C 13.6 °C 1016.5 hPa Calm     64 % 0.0 mm 0.0 W/m2 CLR
05:21 20.6 °C 13.6 °C 1016.5 hPa Calm     64 % 0.0 mm 0.0 W/m2 CLR
05:26 20.6 °C 13.3 °C 1016.5 hPa Calm     63 % 0.0 mm 0.0 W/m2 CLR
05:31 20.5 °C 13.4 °C 1016.5 hPa Calm     64 % 0.0 mm 0.0 W/m2 CLR
05:36 20.5 °C 13.4 °C 1016.5 hPa Calm     64 % 0.0 mm 0.0 W/m2 CLR
05:41 20.4 °C 13.4 °C 1016.5 hPa Calm     64 % 0.0 mm 0.0 W/m2 CLR
05:46 20.3 °C 13.3 °C 1016.5 hPa Calm     64 % 0.0 mm 0.0 W/m2 CLR
05:51 20.3 °C 13.2 °C 1016.8 hPa Calm     64 % 0.0 mm 0.0 W/m2 CLR
05:56 20.2 °C 13.2 °C 1016.8 hPa Calm     64 % 0.0 mm 0.0 W/m2 CLR
06:01 20.1 °C 13.1 °C 1016.8 hPa Calm     64 % 0.0 mm 0.0 W/m2 CLR
06:06 20.1 °C 13.1 °C 1016.8 hPa Calm     64 % 0.0 mm 0.0 W/m2 CLR
06:11 20.1 °C 13.1 °C 1016.8 hPa Calm     64 % 0.0 mm 0.0 W/m2 CLR
06:16 20.2 °C 12.9 °C 1017.2 hPa Calm     63 % 0.0 mm 0.0 W/m2 CLR
06:21 20.2 °C 12.9 °C 1017.2 hPa Calm     63 % 0.0 mm 0.0 W/m2 OVC
06:26 20.2 °C 12.7 °C 1017.2 hPa Calm     62 % 0.0 mm 0.0 W/m2 OVC
06:31 20.2 °C 12.7 °C 1017.2 hPa Calm     62 % 0.0 mm 0.0 W/m2 OVC
06:36 20.2 °C 12.9 °C 1017.2 hPa Calm     63 % 0.0 mm 7.0 W/m2 BKN
06:41 20.2 °C 12.7 °C 1017.2 hPa SW 3.2 km/h 3.2 km/h 62 % 0.0 mm 11.0 W/m2 BKN
06:46 20.3 °C 12.5 °C 1017.5 hPa Calm     61 % 0.0 mm 16.0 W/m2 BKN
06:51 20.3 °C 12.8 °C 1017.5 hPa Calm     62 % 0.0 mm 19.0 W/m2 BKN
06:56 20.3 °C 12.8 °C 1017.5 hPa Calm   0.3 km/h 62 % 0.0 mm 25.0 W/m2 BKN
07:01 20.4 °C 12.9 °C 1017.5 hPa Calm     62 % 0.0 mm 30.0 W/m2 BKN
07:06 21.1 °C 13.6 °C 1017.5 hPa SW 9.7 km/h 9.7 km/h 62 % 0.0 mm 37.0 W/m2 BKN
07:11 21.8 °C 13.7 °C 1017.5 hPa West 9.7 km/h 9.7 km/h 60 % 0.0 mm 44.0 W/m2 BKN
07:16 22.4 °C 14.5 °C 1017.5 hPa WSW 6.4 km/h 6.4 km/h 61 % 0.0 mm 56.0 W/m2 SCT
07:21 22.6 °C 13.6 °C 1017.8 hPa Calm     57 % 0.0 mm 70.0 W/m2 FEW
07:29 22.5 °C 14.1 °C 1017.8 hPa WSW 9.7 km/h 9.7 km/h 59 % 0.0 mm 88.0 W/m2 CLR
07:34 22.8 °C 15.4 °C 1018.2 hPa SW 13.0 km/h 13.0 km/h 63 % 0.0 mm 102.0 W/m2 CLR
07:39 23.2 °C 15.5 °C 1017.8 hPa Calm   0.5 km/h 62 % 0.0 mm 118.0 W/m2 CLR
07:44 23.4 °C 15.7 °C 1018.2 hPa WSW 7.4 km/h 7.4 km/h 62 % 0.0 mm 137.0 W/m2 CLR
07:49 23.7 °C 15.7 °C 1018.2 hPa WSW 5.6 km/h 5.6 km/h 61 % 0.0 mm 149.0 W/m2 CLR
07:54 23.8 °C 15.8 °C 1018.2 hPa West 3.7 km/h 3.7 km/h 61 % 0.0 mm 167.0 W/m2 CLR
07:59 24.0 °C 15.8 °C 1018.2 hPa WSW 7.4 km/h 7.4 km/h 60 % 0.0 mm 178.0 W/m2 CLR
08:04 24.1 °C 15.8 °C 1018.5 hPa West 8.0 km/h 9.0 km/h 60 % 0.0 mm 149.0 W/m2 CLR
08:09 24.2 °C 15.9 °C 1018.5 hPa WSW 11.1 km/h 11.1 km/h 60 % 0.0 mm 169.0 W/m2 CLR
08:14 24.3 °C 15.8 °C 1018.5 hPa WSW 5.6 km/h 5.6 km/h 59 % 0.0 mm 149.0 W/m2 CLR
08:19 24.4 °C 15.8 °C 1018.5 hPa WSW 7.4 km/h 7.4 km/h 59 % 0.0 mm 146.0 W/m2 CLR
08:24 24.4 °C 15.8 °C 1018.5 hPa West 9.7 km/h 9.7 km/h 59 % 0.0 mm 151.0 W/m2 CLR
08:29 24.5 °C 15.9 °C 1018.5 hPa West 7.4 km/h 7.4 km/h 59 % 0.0 mm 169.0 W/m2 CLR
08:34 24.7 °C 15.9 °C 1018.5 hPa WSW 7.4 km/h 7.4 km/h 58 % 0.0 mm 281.0 W/m2 CLR
08:39 24.9 °C 15.8 °C 1018.8 hPa West 13.0 km/h 13.0 km/h 57 % 0.0 mm 258.0 W/m2 CLR
08:44 25.2 °C 16.1 °C 1018.5 hPa WSW 9.3 km/h 9.3 km/h 57 % 0.0 mm 309.0 W/m2 CLR
08:49 25.3 °C 15.9 °C 1018.8 hPa West 13.0 km/h 13.0 km/h 56 % 0.0 mm 281.0 W/m2 CLR
08:54 25.3 °C 15.7 °C 1018.8 hPa West 11.3 km/h 11.3 km/h 55 % 0.0 mm 341.0 W/m2 CLR
08:59 25.3 °C 15.7 °C 1018.8 hPa WSW 13.0 km/h 13.0 km/h 55 % 0.0 mm 348.0 W/m2 CLR
09:04 25.4 °C 15.7 °C 1018.8 hPa WNW 13.0 km/h 13.0 km/h 55 % 0.0 mm 355.0 W/m2 CLR
09:09 25.6 °C 15.8 °C 1018.8 hPa West 5.6 km/h 5.6 km/h 55 % 0.0 mm 383.0 W/m2 CLR
09:14 25.8 °C 15.8 °C 1018.8 hPa WNW 14.8 km/h 14.8 km/h 54 % 0.0 mm 397.0 W/m2 CLR
09:19 26.1 °C 15.7 °C 1018.8 hPa WNW 16.7 km/h 16.7 km/h 53 % 0.0 mm 417.0 W/m2 CLR
09:24 26.2 °C 15.6 °C 1018.8 hPa West 18.5 km/h 18.5 km/h 52 % 0.0 mm 436.0 W/m2 CLR
09:29 26.3 °C 16.0 °C 1018.8 hPa NNW 13.0 km/h 13.0 km/h 53 % 0.0 mm 439.0 W/m2 CLR
09:34 26.4 °C 15.7 °C 1018.8 hPa NNW 14.8 km/h 14.8 km/h 52 % 0.0 mm 202.0 W/m2 CLR
09:39 26.1 °C 15.5 °C 1018.8 hPa WNW 14.8 km/h 14.8 km/h 52 % 0.0 mm 360.0 W/m2 CLR
09:44 26.1 °C 15.7 °C 1018.8 hPa NW 14.8 km/h 14.8 km/h 53 % 0.0 mm 251.0 W/m2 CLR
09:49 26.3 °C 15.9 °C 1018.8 hPa WNW 11.1 km/h 11.1 km/h 53 % 0.0 mm 501.0 W/m2 CLR
09:54 26.6 °C 15.9 °C 1019.2 hPa West 9.3 km/h 9.3 km/h 52 % 0.0 mm 506.0 W/m2 CLR
09:59 26.8 °C 16.2 °C 1019.2 hPa Calm     52 % 0.0 mm 512.0 W/m2 CLR
10:04 27.2 °C 16.2 °C 1019.2 hPa North 5.6 km/h   51 % 0.0 mm 519.0 W/m2 CLR
10:09 27.6 °C 16.2 °C 1018.8 hPa Calm     50 % 0.0 mm 552.0 W/m2 CLR
10:14 27.8 °C 15.8 °C 1018.8 hPa Calm     48 % 0.0 mm 577.0 W/m2 CLR
10:19 28.1 °C 16.0 °C 1018.8 hPa Calm     48 % 0.0 mm 587.0 W/m2 CLR
10:24 28.4 °C 16.3 °C 1018.8 hPa Calm     48 % 0.0 mm 526.0 W/m2 CLR
10:29 28.7 °C 16.3 °C 1018.8 hPa Calm     47 % 0.0 mm 703.0 W/m2 CLR
10:34 28.9 °C 16.1 °C 1018.8 hPa Calm     46 % 0.0 mm 691.0 W/m2 CLR
10:39 29.0 °C 16.2 °C 1018.8 hPa Calm     46 % 0.0 mm 425.0 W/m2 CLR
10:44 29.0 °C 16.2 °C 1018.8 hPa NW 7.4 km/h 7.4 km/h 46 % 0.0 mm 603.0 W/m2 CLR
10:49 29.1 °C 16.3 °C 1018.8 hPa Calm     46 % 0.0 mm 738.0 W/m2 CLR
10:54 29.2 °C 16.0 °C 1018.8 hPa WNW 12.9 km/h 12.9 km/h 45 % 0.0 mm 267.0 W/m2 CLR
10:59 28.9 °C 16.2 °C 1018.8 hPa West 6.4 km/h 6.4 km/h 46 % 0.0 mm 255.0 W/m2 CLR
11:04 28.7 °C 15.9 °C 1018.8 hPa WNW 11.1 km/h 11.1 km/h 46 % 0.0 mm 260.0 W/m2 CLR
11:09 28.6 °C 16.2 °C 1018.8 hPa NNW 1.9 km/h   47 % 0.0 mm 246.0 W/m2 CLR
11:14 28.6 °C 15.8 °C 1018.8 hPa Calm     46 % 0.0 mm 258.0 W/m2 CLR
11:19 28.9 °C 16.8 °C 1018.8 hPa Calm     48 % 0.0 mm 807.0 W/m2 CLR
11:24 29.1 °C 16.3 °C 1018.8 hPa West 11.1 km/h 11.1 km/h 46 % 0.0 mm 810.0 W/m2 CLR
11:29 29.3 °C 16.2 °C 1018.8 hPa Calm     45 % 0.0 mm 826.0 W/m2 CLR
11:34 29.7 °C 16.1 °C 1018.8 hPa Calm     44 % 0.0 mm 844.0 W/m2 CLR
11:39 30.1 °C 16.8 °C 1018.8 hPa Calm     45 % 0.0 mm 847.0 W/m2 CLR
11:40 30.1 °C 16.8 °C 1018.8 hPa North 6.4 km/h 6.4 km/h 45 % 0.0 mm 847.0 W/m2 CLR
11:45 30.5 °C 16.5 °C 1018.8 hPa Calm     43 % 0.0 mm 278.0 W/m2 CLR
11:50 30.2 °C 16.3 °C 1018.8 hPa Calm     43 % 0.0 mm 304.0 W/m2 CLR
11:55 30.2 °C 16.6 °C 1018.8 hPa Calm     44 % 0.0 mm 304.0 W/m2 CLR
12:00 30.3 °C 16.3 °C 1018.8 hPa SW 4.8 km/h 4.8 km/h 43 % 0.0 mm 830.0 W/m2 CLR
12:05 30.6 °C 16.9 °C 1018.8 hPa Calm     44 % 0.0 mm 895.0 W/m2 CLR
12:10 30.9 °C 16.5 °C 1018.8 hPa Calm     42 % 0.0 mm 916.0 W/m2 CLR
12:15 31.1 °C 16.6 °C 1018.8 hPa Calm     42 % 0.0 mm 916.0 W/m2 CLR
12:20 31.1 °C 16.7 °C 1018.5 hPa Calm     42 % 0.0 mm 638.0 W/m2 CLR
12:25 31.3 °C 16.9 °C 1018.5 hPa NE 1.9 km/h 1.9 km/h 42 % 0.0 mm 840.0 W/m2 CLR
12:30 31.8 °C 16.9 °C 1018.5 hPa ENE 11.1 km/h 11.1 km/h 41 % 0.0 mm 796.0 W/m2 CLR
12:35 31.8 °C 16.9 °C 1018.5 hPa Calm     41 % 0.0 mm 512.0 W/m2 CLR
12:40 31.9 °C 17.1 °C 1018.5 hPa SE 1.9 km/h   41 % 0.0 mm 916.0 W/m2 CLR
12:45 32.2 °C 16.9 °C 1018.5 hPa East 1.6 km/h 1.6 km/h 40 % 0.0 mm 909.0 W/m2 CLR
12:50 32.2 °C 16.9 °C 1018.5 hPa Calm     40 % 0.0 mm 902.0 W/m2 CLR
12:55 32.6 °C 17.7 °C 1018.2 hPa NE 6.4 km/h 6.4 km/h 41 % 0.0 mm 884.0 W/m2 CLR
13:00 32.7 °C 17.3 °C 1018.2 hPa NE 9.3 km/h 9.3 km/h 40 % 0.0 mm 881.0 W/m2 CLR
13:05 32.6 °C 17.3 °C 1018.2 hPa ESE 9.3 km/h 9.3 km/h 40 % 0.0 mm 872.0 W/m2 CLR
13:15 32.3 °C 17.4 °C 1018.2 hPa South 8.0 km/h 8.0 km/h 41 % 0.0 mm 879.0 W/m2 CLR
13:20 32.4 °C 17.1 °C 1018.2 hPa ENE 11.1 km/h 11.1 km/h 40 % 0.0 mm 877.0 W/m2 CLR
13:25 32.5 °C 17.6 °C 1018.2 hPa ESE 1.9 km/h 1.9 km/h 41 % 0.0 mm 886.0 W/m2 CLR
13:30 32.8 °C 17.4 °C 1018.2 hPa East 5.6 km/h 5.6 km/h 40 % 0.0 mm 889.0 W/m2 CLR
13:31 32.8 °C 17.4 °C 1018.2 hPa East 5.6 km/h 5.6 km/h 40 % 0.0 mm 889.0 W/m2 CLR
13:36 33.1 °C 17.3 °C 1018.2 hPa ENE 14.8 km/h 14.8 km/h 39 % 0.0 mm 893.0 W/m2 CLR
13:41 33.1 °C 17.3 °C 1017.8 hPa ENE 5.6 km/h 5.6 km/h 39 % 0.0 mm 896.0 W/m2 CLR
13:46 33.3 °C 17.1 °C 1017.8 hPa East 6.4 km/h 6.4 km/h 38 % 0.0 mm 893.0 W/m2 CLR
13:51 33.3 °C 17.4 °C 1017.8 hPa ENE 13.0 km/h 13.0 km/h 39 % 0.0 mm 893.0 W/m2 CLR
13:56 33.4 °C 17.2 °C 1017.8 hPa Calm     38 % 0.0 mm 895.0 W/m2 CLR
14:01 33.6 °C 17.3 °C 1017.8 hPa NNE 9.3 km/h 9.3 km/h 38 % 0.0 mm 898.0 W/m2 CLR
14:06 33.8 °C 17.5 °C 1017.8 hPa North 7.4 km/h 7.4 km/h 38 % 0.0 mm 898.0 W/m2 CLR
14:11 33.9 °C 17.6 °C 1017.5 hPa East 1.6 km/h   38 % 0.0 mm 898.0 W/m2 CLR
14:16 34.1 °C 17.3 °C 1017.5 hPa Calm     37 % 0.0 mm 902.0 W/m2 CLR
14:21 34.1 °C 17.3 °C 1017.5 hPa South 1.9 km/h 1.9 km/h 37 % 0.0 mm 896.0 W/m2 CLR
14:26 34.1 °C 16.9 °C 1017.5 hPa South 3.7 km/h 3.7 km/h 36 % 0.0 mm 900.0 W/m2 CLR
14:31 34.1 °C 16.9 °C 1017.2 hPa SSW 1.9 km/h   36 % 0.0 mm 896.0 W/m2 CLR
14:36 34.3 °C 16.2 °C 1017.2 hPa Calm     34 % 0.0 mm 891.0 W/m2 CLR
14:41 34.7 °C 16.5 °C 1017.2 hPa Calm     34 % 0.0 mm 893.0 W/m2 CLR
14:46 34.9 °C 16.3 °C 1017.2 hPa Calm     33 % 0.0 mm 891.0 W/m2 CLR
14:51 35.1 °C 16.8 °C 1017.2 hPa ENE 7.4 km/h 7.4 km/h 34 % 0.0 mm 886.0 W/m2 CLR
14:56 35.0 °C 16.8 °C 1017.2 hPa ENE 3.7 km/h   34 % 0.0 mm 882.0 W/m2 CLR
15:01 35.2 °C 16.9 °C 1016.8 hPa Calm     34 % 0.0 mm 877.0 W/m2 CLR
15:06 35.6 °C 16.8 °C 1016.8 hPa Calm     33 % 0.0 mm 875.0 W/m2 CLR
15:11 35.8 °C 16.5 °C 1016.8 hPa Calm     32 % 0.0 mm 870.0 W/m2 CLR
15:16 35.8 °C 16.6 °C 1016.8 hPa Calm     32 % 0.0 mm 872.0 W/m2 CLR
15:21 36.1 °C 16.3 °C 1016.5 hPa Calm     31 % 0.0 mm 861.0 W/m2 CLR
15:22 36.1 °C 16.3 °C 1016.5 hPa Calm     31 % 0.0 mm 861.0 W/m2 CLR
15:27 36.3 °C 16.5 °C 1016.5 hPa NNE 5.6 km/h 5.6 km/h 31 % 0.0 mm 856.0 W/m2 CLR
15:32 36.5 °C 16.7 °C 1016.5 hPa NE 11.1 km/h 11.1 km/h 31 % 0.0 mm 847.0 W/m2 CLR
15:37 36.6 °C 16.2 °C 1016.1 hPa NNE 5.6 km/h 5.6 km/h 30 % 0.0 mm 838.0 W/m2 CLR
15:42 36.7 °C 16.8 °C 1016.1 hPa North 3.7 km/h 3.7 km/h 31 % 0.0 mm 833.0 W/m2 CLR
15:47 36.7 °C 16.3 °C 1016.1 hPa NNE 1.9 km/h 1.9 km/h 30 % 0.0 mm 828.0 W/m2 CLR
15:52 36.7 °C 16.3 °C 1016.1 hPa Calm     30 % 0.0 mm 819.0 W/m2 CLR
15:57 36.6 °C 16.2 °C 1016.1 hPa Calm     30 % 0.0 mm 814.0 W/m2 CLR
16:02 36.6 °C 16.7 °C 1016.1 hPa SSE 5.6 km/h 5.6 km/h 31 % 0.0 mm 803.0 W/m2 CLR
16:07 36.6 °C 16.7 °C 1016.1 hPa Calm     31 % 0.0 mm 795.0 W/m2 CLR
16:12 37.2 °C 16.2 °C 1016.1 hPa North 5.6 km/h 5.6 km/h 29 % 0.0 mm 786.0 W/m2 CLR
16:17 37.2 °C 16.2 °C 1015.8 hPa Calm     29 % 0.0 mm 772.0 W/m2 CLR
16:22 37.5 °C 16.4 °C 1015.8 hPa Calm     29 % 0.0 mm 766.0 W/m2 CLR
16:27 37.4 °C 16.4 °C 1015.8 hPa ENE 7.4 km/h 7.4 km/h 29 % 0.0 mm 761.0 W/m2 CLR
16:32 37.4 °C 16.3 °C 1015.8 hPa NNE 5.6 km/h 5.6 km/h 29 % 0.0 mm 752.0 W/m2 CLR
16:37 37.3 °C 16.3 °C 1015.8 hPa NNW 4.8 km/h 4.8 km/h 29 % 0.0 mm 737.0 W/m2 CLR
16:42 37.3 °C 16.3 °C 1015.8 hPa NE 3.7 km/h 3.7 km/h 29 % 0.0 mm 731.0 W/m2 CLR
16:47 37.6 °C 16.5 °C 1015.5 hPa ENE 7.4 km/h 7.4 km/h 29 % 0.0 mm 717.0 W/m2 CLR
16:52 37.6 °C 15.9 °C 1015.5 hPa ENE 5.6 km/h 5.6 km/h 28 % 0.0 mm 700.0 W/m2 CLR
16:57 37.4 °C 15.8 °C 1015.5 hPa NE 7.4 km/h 7.4 km/h 28 % 0.0 mm 689.0 W/m2 CLR
17:02 37.3 °C 15.7 °C 1015.5 hPa NNE 3.7 km/h 3.7 km/h 28 % 0.0 mm 684.0 W/m2 CLR
17:07 37.4 °C 15.8 °C 1015.1 hPa Calm     28 % 0.0 mm 671.0 W/m2 CLR
17:12 37.7 °C 15.5 °C 1015.1 hPa NNE 5.6 km/h 5.6 km/h 27 % 0.0 mm 661.0 W/m2 CLR
17:17 37.9 °C 15.7 °C 1015.1 hPa ENE 8.0 km/h 8.0 km/h 27 % 0.0 mm 642.0 W/m2 CLR
17:22 37.9 °C 15.7 °C 1015.1 hPa North 5.6 km/h 5.6 km/h 27 % 0.0 mm 629.0 W/m2 CLR
17:27 37.8 °C 17.3 °C 1015.1 hPa SE 11.1 km/h 11.1 km/h 30 % 0.0 mm 612.0 W/m2 CLR
17:32 37.2 °C 17.8 °C 1015.1 hPa SE 13.0 km/h 13.0 km/h 32 % 0.0 mm 601.0 W/m2 CLR
17:37 36.8 °C 17.9 °C 1015.1 hPa ESE 14.8 km/h 14.8 km/h 33 % 0.0 mm 585.0 W/m2 CLR
17:42 36.9 °C 18.4 °C 1014.8 hPa ESE 14.8 km/h 14.8 km/h 34 % 0.0 mm 570.0 W/m2 CLR
17:47 36.8 °C 18.8 °C 1014.8 hPa ESE 9.7 km/h 9.7 km/h 35 % 0.0 mm 554.0 W/m2 CLR
17:52 36.6 °C 18.7 °C 1014.8 hPa East 18.5 km/h 18.5 km/h 35 % 0.0 mm 540.0 W/m2 CLR
17:57 36.2 °C 18.3 °C 1014.8 hPa ESE 16.7 km/h 16.7 km/h 35 % 0.0 mm 531.0 W/m2 CLR
18:02 36.1 °C 18.2 °C 1014.8 hPa SE 14.8 km/h 14.8 km/h 35 % 0.0 mm 519.0 W/m2 CLR
18:07 35.9 °C 18.1 °C 1014.8 hPa East 18.5 km/h 18.5 km/h 35 % 0.0 mm 501.0 W/m2 CLR
18:12 35.8 °C 18.4 °C 1014.8 hPa SE 16.1 km/h 16.1 km/h 36 % 0.0 mm 485.0 W/m2 CLR
18:17 35.8 °C 18.4 °C 1014.8 hPa SE 12.9 km/h 12.9 km/h 36 % 0.0 mm 476.0 W/m2 CLR
18:22 35.8 °C 18.4 °C 1014.4 hPa ESE 18.5 km/h 18.5 km/h 36 % 0.0 mm 462.0 W/m2 CLR
18:27 35.7 °C 17.9 °C 1014.4 hPa ESE 14.8 km/h 14.8 km/h 35 % 0.0 mm 443.0 W/m2 CLR
18:32 35.6 °C 18.7 °C 1014.4 hPa East 14.8 km/h 14.8 km/h 37 % 0.0 mm 427.0 W/m2 CLR
18:37 35.5 °C 18.2 °C 1014.8 hPa ESE 18.5 km/h 18.5 km/h 36 % 0.0 mm 417.0 W/m2 CLR
18:42 35.4 °C 18.5 °C 1014.4 hPa ESE 18.5 km/h 18.5 km/h 37 % 0.0 mm 403.0 W/m2 CLR
18:47 35.4 °C 18.6 °C 1014.4 hPa ESE 17.7 km/h 17.7 km/h 37 % 0.0 mm 388.0 W/m2 CLR
18:52 35.4 °C 18.1 °C 1014.8 hPa SE 14.8 km/h 14.8 km/h 36 % 0.0 mm 374.0 W/m2 CLR
18:57 35.3 °C 18.0 °C 1014.8 hPa SE 16.7 km/h 16.7 km/h 36 % 0.0 mm 362.0 W/m2 CLR
19:02 35.2 °C 18.3 °C 1014.8 hPa SE 18.5 km/h 18.5 km/h 37 % 0.0 mm 346.0 W/m2 CLR
19:12 35.2 °C 18.8 °C 1014.4 hPa ESE 16.7 km/h 16.7 km/h 38 % 0.0 mm 318.0 W/m2 CLR
19:17 35.1 °C 19.0 °C 1014.4 hPa East 14.8 km/h 14.8 km/h 39 % 0.0 mm 301.0 W/m2 CLR
19:22 35.1 °C 19.1 °C 1014.4 hPa SE 16.7 km/h 16.7 km/h 39 % 0.0 mm 288.0 W/m2 CLR
19:27 35.1 °C 19.0 °C 1014.4 hPa ESE 18.5 km/h 18.5 km/h 39 % 0.0 mm 285.0 W/m2 CLR
19:32 35.0 °C 19.0 °C 1014.4 hPa ESE 18.5 km/h 18.5 km/h 39 % 0.0 mm 281.0 W/m2 CLR
19:37 35.0 °C 19.0 °C 1014.4 hPa ESE 16.7 km/h 16.7 km/h 39 % 0.0 mm 278.0 W/m2 CLR
19:42 35.0 °C 19.4 °C 1014.4 hPa SE 7.4 km/h 7.4 km/h 40 % 0.0 mm 272.0 W/m2 CLR
19:43 35.1 °C 19.0 °C 1014.4 hPa ESE 5.6 km/h   39 % 0.0 mm 271.0 W/m2 CLR
19:48 35.1 °C 19.4 °C 1014.8 hPa ESE 9.3 km/h 9.3 km/h 40 % 0.0 mm 271.0 W/m2 CLR
19:53 35.0 °C 19.4 °C 1014.8 hPa ESE 16.7 km/h 16.7 km/h 40 % 0.0 mm 258.0 W/m2 CLR
19:58 34.9 °C 18.4 °C 1014.4 hPa SSE 19.3 km/h 19.3 km/h 38 % 0.0 mm 223.0 W/m2 CLR
20:03 34.6 °C 18.2 °C 1014.8 hPa South 18.5 km/h 18.5 km/h 38 % 0.0 mm 199.0 W/m2 CLR
20:08 34.6 °C 18.6 °C 1014.8 hPa SSE 9.3 km/h 9.3 km/h 39 % 0.0 mm 176.0 W/m2 CLR
20:13 34.6 °C 19.0 °C 1014.8 hPa SSE 18.5 km/h 18.5 km/h 40 % 0.0 mm 156.0 W/m2 CLR
20:18 34.4 °C 18.4 °C 1014.8 hPa South 13.0 km/h 13.0 km/h 39 % 0.0 mm 156.0 W/m2 CLR
20:23 34.4 °C 18.1 °C 1014.8 hPa SSE 18.5 km/h 18.5 km/h 38 % 0.0 mm 148.0 W/m2 CLR
20:28 34.4 °C 18.0 °C 1014.8 hPa South 9.3 km/h 9.3 km/h 38 % 0.0 mm 134.0 W/m2 CLR
20:33 34.3 °C 18.4 °C 1014.8 hPa South 11.1 km/h 11.1 km/h 39 % 0.0 mm 125.0 W/m2 CLR
20:38 34.4 °C 18.0 °C 1014.8 hPa South 13.0 km/h 13.0 km/h 38 % 0.0 mm 118.0 W/m2 CLR
20:43 34.3 °C 17.6 °C 1014.8 hPa SSE 9.3 km/h 9.3 km/h 37 % 0.0 mm 104.0 W/m2 CLR
20:48 34.3 °C 17.5 °C 1015.1 hPa SSE 11.3 km/h 11.3 km/h 37 % 0.0 mm 83.0 W/m2 FEW
20:53 34.2 °C 19.1 °C 1015.1 hPa Calm     41 % 0.0 mm 79.0 W/m2 FEW
20:58 33.9 °C 18.1 °C 1015.1 hPa SE 3.7 km/h   39 % 0.0 mm 72.0 W/m2 FEW
21:03 33.7 °C 19.8 °C 1015.1 hPa ESE 9.7 km/h 9.7 km/h 44 % 0.0 mm 60.0 W/m2 SCT
21:08 33.3 °C 19.4 °C 1015.1 hPa SE 5.6 km/h 5.6 km/h 44 % 0.0 mm 44.0 W/m2 SCT
21:13 33.0 °C 19.5 °C 1015.1 hPa Calm     45 % 0.0 mm 32.0 W/m2 BKN
21:18 32.8 °C 19.7 °C 1015.1 hPa Calm     46 % 0.0 mm 23.0 W/m2 BKN
21:23 32.6 °C 19.5 °C 1015.1 hPa SE 5.6 km/h 5.6 km/h 46 % 0.0 mm 16.0 W/m2 BKN
21:28 32.3 °C 19.6 °C 1015.1 hPa SE 11.1 km/h 11.1 km/h 47 % 0.0 mm 11.0 W/m2 BKN
21:33 32.0 °C 19.6 °C 1015.1 hPa SE 9.3 km/h 9.3 km/h 48 % 0.0 mm 5.0 W/m2 OVC
21:38 31.7 °C 19.3 °C 1015.1 hPa Calm     48 % 0.0 mm 0.0 W/m2 OVC
21:43 31.4 °C 19.4 °C 1015.1 hPa Calm     49 % 0.0 mm 0.0 W/m2 OVC
21:48 31.3 °C 19.3 °C 1015.1 hPa Calm     49 % 0.0 mm 0.0 W/m2 CLR
21:53 31.0 °C 19.3 °C 1015.5 hPa Calm     50 % 0.0 mm 0.0 W/m2 CLR
21:54 31.0 °C 19.3 °C 1015.5 hPa Calm     50 % 0.0 mm 0.0 W/m2 CLR
21:59 30.8 °C 19.5 °C 1015.5 hPa Calm     51 % 0.0 mm 0.0 W/m2 CLR
22:04 30.6 °C 19.3 °C 1015.5 hPa Calm     51 % 0.0 mm 0.0 W/m2 CLR
22:09 30.3 °C 19.4 °C 1015.5 hPa Calm     52 % 0.0 mm 0.0 W/m2 CLR
22:14 30.1 °C 19.2 °C 1015.8 hPa Calm     52 % 0.0 mm 0.0 W/m2 CLR
22:19 29.9 °C 19.3 °C 1015.8 hPa Calm     53 % 0.0 mm 0.0 W/m2 CLR
22:24 29.8 °C 19.2 °C 1015.8 hPa ESE 7.4 km/h 7.4 km/h 53 % 0.0 mm 0.0 W/m2 CLR
22:29 29.5 °C 19.2 °C 1015.8 hPa ESE 5.6 km/h 5.6 km/h 54 % 0.0 mm 0.0 W/m2 CLR
22:34 29.3 °C 19.3 °C 1015.8 hPa Calm     55 % 0.0 mm 0.0 W/m2 CLR
22:39 29.1 °C 19.2 °C 1016.1 hPa Calm     55 % 0.0 mm 0.0 W/m2 CLR
22:44 28.9 °C 19.3 °C 1016.1 hPa East 7.4 km/h 7.4 km/h 56 % 0.0 mm 0.0 W/m2 CLR
22:49 28.9 °C 19.0 °C 1016.1 hPa ESE 5.6 km/h 5.6 km/h 55 % 0.0 mm 0.0 W/m2 CLR
22:54 28.9 °C 19.3 °C 1016.1 hPa Calm     56 % 0.0 mm 0.0 W/m2 CLR
22:59 28.8 °C 19.2 °C 1016.1 hPa Calm     56 % 0.0 mm 0.0 W/m2 CLR
23:04 28.7 °C 19.0 °C 1016.1 hPa Calm     56 % 0.0 mm 0.0 W/m2 CLR
23:09 28.5 °C 19.2 °C 1016.1 hPa Calm     57 % 0.0 mm 0.0 W/m2 CLR
23:14 28.3 °C 19.0 °C 1016.1 hPa Calm     57 % 0.0 mm 0.0 W/m2 CLR
23:19 28.4 °C 19.1 °C 1016.1 hPa Calm     57 % 0.0 mm 0.0 W/m2 CLR
23:24 28.3 °C 18.7 °C 1016.1 hPa Calm     56 % 0.0 mm 0.0 W/m2 CLR
23:29 28.2 °C 18.6 °C 1016.1 hPa Calm     56 % 0.0 mm 0.0 W/m2 CLR
23:34 28.3 °C 18.7 °C 1016.1 hPa Calm     56 % 0.0 mm 0.0 W/m2 CLR
23:39 28.3 °C 18.4 °C 1016.1 hPa Calm     55 % 0.0 mm 0.0 W/m2 CLR
23:44 28.3 °C 18.1 °C 1016.1 hPa Calm     54 % 0.0 mm 0.0 W/m2 CLR
23:49 28.3 °C 18.4 °C 1016.1 hPa Calm     55 % 0.0 mm 0.0 W/m2 CLR
23:54 28.3 °C 18.1 °C 1016.1 hPa Calm     54 % 0.0 mm 0.0 W/m2 CLR
23:59 28.2 °C 18.6 °C 1016.1 hPa Calm     56 % 0.0 mm 0.0 W/m2 CLR
Lo Temps de Massalio
Compliments of Weather Underground - 1.25 mb